Terminal Aerodrome Forecast
Issued by NWS Detroit/Pontiac, MI

Home | Current Version | Previous Version | Text Only | Print | Product List | Glossary On
Versions: 1 2 3 4 5 6 7 8 9 10 11 12 13 14 15 16 17 18 19 20 21 22 23 24 25 26 27 28 29
000
FTUS43 KDTX 250834 AAA
TAFDTW
TAF AMD
KDTW 250834Z 2509/2612 21004KT 3SM BR SCT060 BKN150
     FM251200 23010KT P6SM SCT025 OVC040
     FM251600 27014G22KT P6SM BKN025
     FM251900 27015G24KT P6SM SKC
     FM260000 28010KT P6SM SKC=

USA.gov is the U.S. government's official web portal to all federal, state and local government web resources and services.